Year,Month,Day,Hour,Minute,Value (Times are PST for temperature in C)
2008,07,04,00,00,19.70
2008,07,04,00,01,19.70
2008,07,04,00,02,19.80
2008,07,04,00,03,19.70
2008,07,04,00,04,19.70
2008,07,04,00,05,19.70
2008,07,04,00,06,19.70
2008,07,04,00,07,19.70
2008,07,04,00,08,19.70
2008,07,04,00,09,19.70
2008,07,04,00,10,19.70
2008,07,04,00,11,19.70
2008,07,04,00,12,19.80
2008,07,04,01,02,18.40
2008,07,04,01,03,18.30
2008,07,04,01,04,18.30
2008,07,04,01,05,18.30
2008,07,04,01,06,18.30
2008,07,04,01,07,18.30
2008,07,04,01,08,18.30
2008,07,04,01,09,18.30
2008,07,04,01,10,18.20
2008,07,04,01,11,18.20
2008,07,04,01,12,18.10
2008,07,04,01,13,18.10
2008,07,04,01,14,18.00
2008,07,04,01,15,17.90
2008,07,04,01,16,17.80
2008,07,04,01,17,17.80
2008,07,04,01,18,17.70
2008,07,04,01,19,17.60
2008,07,04,01,20,17.50
2008,07,04,01,21,17.50
2008,07,04,01,22,17.40
2008,07,04,01,23,17.40
2008,07,04,01,24,17.30
2008,07,04,01,25,17.30
2008,07,04,01,26,17.30
2008,07,04,01,27,17.30
2008,07,04,01,28,17.30
2008,07,04,01,29,17.20
2008,07,04,01,30,17.20
2008,07,04,01,31,17.10
2008,07,04,01,32,17.10
2008,07,04,01,33,17.20
2008,07,04,01,34,17.20
2008,07,04,01,35,17.20
2008,07,04,01,36,17.20
2008,07,04,01,37,17.20
2008,07,04,01,38,17.20
2008,07,04,01,39,17.20
2008,07,04,01,40,17.20
2008,07,04,01,41,17.20
2008,07,04,01,42,17.10
2008,07,04,01,43,17.10
2008,07,04,01,44,17.10
2008,07,04,01,45,17.10
2008,07,04,01,46,17.10
2008,07,04,01,47,17.10
2008,07,04,01,48,17.10
2008,07,04,01,49,17.10
2008,07,04,01,50,17.10
2008,07,04,01,51,17.10
2008,07,04,01,52,17.10
2008,07,04,01,53,17.10
2008,07,04,01,54,17.10
2008,07,04,01,55,17.10
2008,07,04,01,56,17.10
2008,07,04,01,57,17.10
2008,07,04,01,58,17.20
2008,07,04,01,59,17.20
2008,07,04,02,00,17.20
2008,07,04,02,01,17.20
2008,07,04,02,02,17.20
2008,07,04,02,03,17.30
2008,07,04,02,04,17.30
2008,07,04,02,05,17.40
2008,07,04,02,06,17.40
2008,07,04,02,07,17.50
2008,07,04,02,08,17.60
2008,07,04,02,09,17.70
2008,07,04,02,10,17.70
2008,07,04,02,11,17.70
2008,07,04,02,12,17.70
2008,07,04,02,13,17.80
2008,07,04,02,14,17.80
2008,07,04,02,15,17.80
2008,07,04,02,16,17.90
2008,07,04,02,17,17.90
2008,07,04,02,18,17.90
2008,07,04,02,19,17.90
2008,07,04,02,20,17.90
2008,07,04,02,21,18.00
2008,07,04,02,22,18.00
2008,07,04,02,23,17.90
2008,07,04,02,24,17.90
2008,07,04,02,25,17.90
2008,07,04,02,26,17.90
2008,07,04,02,27,17.90
2008,07,04,02,28,18.00
2008,07,04,02,29,18.00
2008,07,04,02,30,18.00
2008,07,04,02,31,18.00
2008,07,04,02,32,18.00
2008,07,04,02,33,18.00
2008,07,04,02,34,17.90
2008,07,04,02,35,17.90
2008,07,04,02,36,17.90
2008,07,04,02,37,17.90
2008,07,04,02,38,17.90
2008,07,04,02,39,17.90
2008,07,04,02,40,17.90
2008,07,04,02,41,17.90
2008,07,04,02,42,17.90
2008,07,04,02,43,17.90
2008,07,04,02,44,17.90
2008,07,04,02,45,17.80
2008,07,04,02,46,17.80
2008,07,04,02,47,17.80
2008,07,04,02,48,17.80
2008,07,04,02,49,17.80
2008,07,04,02,50,17.80
2008,07,04,02,51,17.80
2008,07,04,02,52,17.90
2008,07,04,02,53,17.90
2008,07,04,02,54,17.90
2008,07,04,02,55,18.00
2008,07,04,02,56,18.00
2008,07,04,02,57,18.10
2008,07,04,02,58,18.10
2008,07,04,02,59,18.10
2008,07,04,03,00,18.10
2008,07,04,03,01,18.10
2008,07,04,03,02,18.10
2008,07,04,03,03,18.00
2008,07,04,03,04,18.00
2008,07,04,03,05,18.00
2008,07,04,03,06,18.00
2008,07,04,03,07,18.00
2008,07,04,03,08,18.00
2008,07,04,03,09,18.00
2008,07,04,03,10,18.10
2008,07,04,03,11,18.00
2008,07,04,03,12,18.00
2008,07,04,03,13,17.90
2008,07,04,03,14,17.80
2008,07,04,03,15,17.70
2008,07,04,03,16,17.70
2008,07,04,03,17,17.60
2008,07,04,03,18,17.50
2008,07,04,03,19,17.40
2008,07,04,03,20,17.40
2008,07,04,03,21,17.40
2008,07,04,03,22,17.40
2008,07,04,03,23,17.30
2008,07,04,03,24,17.30
2008,07,04,03,25,17.20
2008,07,04,03,26,17.20
2008,07,04,03,27,17.20
2008,07,04,03,28,17.10
2008,07,04,03,29,17.10
2008,07,04,03,30,17.20
2008,07,04,03,31,17.20
2008,07,04,03,32,17.20
2008,07,04,03,33,17.20
2008,07,04,03,34,17.20
2008,07,04,03,35,17.20
2008,07,04,03,36,17.20
2008,07,04,03,37,17.20
2008,07,04,03,38,17.20
2008,07,04,03,39,17.20
2008,07,04,03,40,17.30
2008,07,04,03,41,17.30
2008,07,04,03,42,17.30
2008,07,04,03,43,17.40
2008,07,04,03,44,17.40
2008,07,04,03,45,17.40
2008,07,04,03,46,17.40
2008,07,04,03,47,17.40
2008,07,04,03,48,17.40
2008,07,04,03,49,17.40
2008,07,04,03,50,17.40
2008,07,04,03,51,17.40
2008,07,04,03,52,17.40
2008,07,04,03,53,17.40
2008,07,04,03,54,17.40
2008,07,04,03,55,17.40
2008,07,04,03,56,17.40
2008,07,04,03,57,17.40
2008,07,04,03,58,17.40
2008,07,04,03,59,17.40
2008,07,04,04,00,17.40
2008,07,04,04,01,17.30
2008,07,04,04,02,17.30
2008,07,04,04,03,17.30
2008,07,04,04,04,17.30
2008,07,04,04,05,17.30
2008,07,04,04,06,17.30
2008,07,04,04,07,17.30
2008,07,04,04,08,17.30
2008,07,04,04,09,17.30
2008,07,04,04,10,17.30
2008,07,04,04,11,17.30
2008,07,04,04,12,17.30
2008,07,04,04,13,17.30
2008,07,04,04,14,17.20
2008,07,04,04,15,17.30
2008,07,04,04,16,17.20
2008,07,04,04,17,17.30
2008,07,04,04,18,17.30
2008,07,04,04,19,17.30
2008,07,04,04,20,17.30
2008,07,04,04,21,17.30
2008,07,04,04,22,17.30
2008,07,04,04,23,17.30
2008,07,04,04,24,17.20
2008,07,04,04,25,17.20
2008,07,04,04,26,17.20
2008,07,04,04,27,17.20
2008,07,04,04,28,17.00
2008,07,04,04,29,17.00
2008,07,04,04,30,16.90
2008,07,04,04,31,16.80
2008,07,04,04,32,16.70
2008,07,04,04,33,16.60
2008,07,04,04,34,16.60
2008,07,04,04,35,16.50
2008,07,04,04,36,16.40
2008,07,04,04,37,16.30
2008,07,04,04,38,16.30
2008,07,04,04,39,16.20
2008,07,04,04,40,16.20
2008,07,04,04,41,16.10
2008,07,04,04,42,16.10
2008,07,04,04,43,16.00
2008,07,04,04,44,15.90
2008,07,04,04,45,15.90
2008,07,04,04,46,15.80
2008,07,04,04,47,15.80
2008,07,04,04,48,15.80
2008,07,04,04,49,15.70
2008,07,04,04,50,15.70
2008,07,04,04,51,15.70
2008,07,04,04,52,15.70
2008,07,04,04,53,15.70
2008,07,04,04,54,15.70
2008,07,04,04,55,15.70
2008,07,04,04,56,15.70
2008,07,04,04,57,15.70
2008,07,04,04,58,15.70
2008,07,04,04,59,15.70
2008,07,04,05,00,15.80
2008,07,04,05,01,15.80
2008,07,04,05,02,15.80
2008,07,04,05,03,15.80
2008,07,04,05,04,15.80
2008,07,04,05,05,15.80
2008,07,04,05,06,15.80
2008,07,04,05,07,15.80
2008,07,04,05,08,15.80
2008,07,04,05,09,15.80
2008,07,04,05,10,15.80
2008,07,04,05,11,15.80
2008,07,04,05,12,15.80
2008,07,04,05,13,15.80
2008,07,04,05,14,15.80
2008,07,04,05,15,15.80
2008,07,04,05,16,15.80
2008,07,04,05,17,15.80
2008,07,04,05,18,15.80
2008,07,04,05,19,15.80
2008,07,04,05,20,15.80
2008,07,04,05,21,15.70
2008,07,04,05,22,15.60
2008,07,04,05,23,15.50
2008,07,04,05,24,15.40
2008,07,04,05,25,15.40
2008,07,04,05,26,15.30
2008,07,04,05,27,15.20
2008,07,04,05,28,15.10
2008,07,04,05,29,15.00
2008,07,04,05,30,15.00
2008,07,04,05,31,15.00
2008,07,04,05,32,15.00
2008,07,04,05,33,15.00
2008,07,04,05,34,15.00
2008,07,04,05,35,15.00
2008,07,04,05,36,15.00
2008,07,04,05,37,15.00
2008,07,04,05,38,15.00
2008,07,04,05,39,15.00
2008,07,04,05,40,15.00
2008,07,04,05,41,15.00
2008,07,04,05,42,15.00
2008,07,04,05,43,15.00
2008,07,04,05,44,15.00
2008,07,04,05,45,15.00
2008,07,04,05,46,15.00
2008,07,04,05,47,15.00
2008,07,04,05,48,15.00
2008,07,04,05,49,15.00
2008,07,04,05,50,15.00
2008,07,04,05,51,15.00
2008,07,04,05,52,15.00
2008,07,04,05,53,15.00
2008,07,04,05,54,15.00
2008,07,04,05,55,15.00
2008,07,04,05,56,15.00
2008,07,04,05,57,15.00
2008,07,04,05,58,15.00
2008,07,04,05,59,15.00
2008,07,04,06,00,15.00
2008,07,04,06,01,15.00
2008,07,04,06,02,15.00
2008,07,04,06,03,15.00
2008,07,04,06,04,15.00
2008,07,04,06,05,15.00
2008,07,04,06,06,15.00
2008,07,04,06,07,15.00
2008,07,04,06,08,15.00
2008,07,04,06,09,15.00
2008,07,04,06,10,15.00
2008,07,04,06,11,15.00
2008,07,04,06,12,15.00
2008,07,04,06,13,15.00
2008,07,04,06,14,15.00
2008,07,04,06,15,15.00
2008,07,04,06,16,15.00
2008,07,04,06,17,15.00
2008,07,04,06,18,15.00
2008,07,04,06,19,15.00
2008,07,04,06,20,15.00
2008,07,04,06,21,15.00
2008,07,04,06,22,15.00
2008,07,04,06,23,15.00
2008,07,04,06,24,15.00
2008,07,04,06,25,15.00
2008,07,04,06,26,15.00
2008,07,04,06,27,15.00
2008,07,04,06,28,15.00
2008,07,04,06,29,15.00
2008,07,04,06,30,15.00
2008,07,04,06,31,15.00
2008,07,04,06,32,15.00
2008,07,04,06,33,15.00
2008,07,04,06,34,15.00
2008,07,04,06,35,15.00
2008,07,04,06,36,15.00
2008,07,04,06,37,15.00
2008,07,04,06,38,15.00
2008,07,04,06,39,15.00
2008,07,04,06,40,15.00
2008,07,04,06,41,15.00
2008,07,04,06,42,15.10
2008,07,04,06,43,15.20
2008,07,04,06,44,15.20
2008,07,04,06,45,15.20
2008,07,04,06,46,15.30
2008,07,04,06,47,15.30
2008,07,04,06,48,15.40
2008,07,04,06,49,15.50
2008,07,04,06,50,15.50
2008,07,04,06,51,15.50
2008,07,04,06,52,15.60
2008,07,04,06,53,15.60
2008,07,04,06,54,15.60
2008,07,04,06,55,15.60
2008,07,04,06,56,15.70
2008,07,04,06,57,15.70
2008,07,04,06,58,15.70
2008,07,04,06,59,15.70
2008,07,04,07,00,15.80
2008,07,04,07,01,15.90
2008,07,04,07,02,16.00
2008,07,04,07,03,16.10
2008,07,04,07,04,16.20
2008,07,04,07,05,16.30
2008,07,04,07,06,16.40
2008,07,04,07,07,16.60
2008,07,04,07,08,16.70
2008,07,04,07,09,16.80
2008,07,04,07,10,17.00
2008,07,04,07,11,17.10
2008,07,04,07,12,17.20
2008,07,04,07,13,17.30
2008,07,04,07,14,17.40
2008,07,04,07,15,17.50
2008,07,04,07,16,17.50
2008,07,04,07,17,17.60
2008,07,04,07,18,17.70
2008,07,04,07,19,17.80
2008,07,04,07,20,17.90
2008,07,04,07,21,17.90
2008,07,04,07,22,18.00
2008,07,04,07,23,18.10
2008,07,04,07,24,18.20
2008,07,04,07,25,18.20
2008,07,04,07,26,18.30
2008,07,04,07,27,18.40
2008,07,04,07,28,18.50
2008,07,04,07,29,18.50
2008,07,04,07,30,18.50
2008,07,04,07,31,18.40
2008,07,04,07,32,18.40
2008,07,04,07,33,18.30
2008,07,04,07,34,18.30
2008,07,04,07,35,18.20
2008,07,04,07,36,18.10
2008,07,04,07,37,18.10
2008,07,04,07,38,18.00
2008,07,04,07,39,17.90
2008,07,04,07,40,17.80
2008,07,04,07,41,17.70
2008,07,04,07,42,17.70
2008,07,04,07,43,17.70
2008,07,04,07,44,17.70
2008,07,04,07,45,17.70
2008,07,04,07,46,17.70
2008,07,04,07,47,17.70
2008,07,04,07,48,17.70
2008,07,04,07,49,17.70
2008,07,04,07,50,17.70
2008,07,04,07,51,17.70
2008,07,04,07,52,17.80
2008,07,04,07,53,17.80
2008,07,04,07,54,17.90
2008,07,04,07,55,18.00
2008,07,04,07,56,18.10
2008,07,04,07,57,18.10
2008,07,04,07,58,18.20
2008,07,04,07,59,18.30
2008,07,04,08,00,18.30
2008,07,04,08,01,18.40
2008,07,04,08,02,18.50
2008,07,04,08,03,18.60
2008,07,04,08,04,18.70
2008,07,04,08,05,18.80
2008,07,04,08,06,18.70
2008,07,04,08,07,18.70
2008,07,04,08,08,18.60
2008,07,04,08,09,18.50
2008,07,04,08,10,18.40
2008,07,04,08,11,18.30
2008,07,04,08,12,18.30
2008,07,04,08,13,18.30
2008,07,04,08,14,18.30
2008,07,04,08,15,18.30
2008,07,04,08,16,18.40
2008,07,04,08,17,18.50
2008,07,04,08,18,18.50
2008,07,04,08,19,18.60
2008,07,04,08,20,18.70
2008,07,04,08,21,18.80
2008,07,04,08,22,18.90
2008,07,04,08,23,19.00
2008,07,04,08,24,19.10
2008,07,04,08,25,19.10
2008,07,04,08,26,19.20
2008,07,04,08,27,19.20
2008,07,04,08,28,19.20
2008,07,04,08,29,19.30
2008,07,04,08,30,19.40
2008,07,04,08,31,19.50
2008,07,04,08,32,19.50
2008,07,04,08,33,19.60
2008,07,04,08,34,19.60
2008,07,04,08,35,19.60
2008,07,04,08,36,19.60
2008,07,04,08,37,19.60
2008,07,04,08,38,19.60
2008,07,04,08,39,19.70
2008,07,04,08,40,19.70
2008,07,04,08,41,19.80
2008,07,04,08,42,19.80
2008,07,04,08,43,20.00
2008,07,04,08,44,20.00
2008,07,04,08,45,20.10
2008,07,04,08,46,20.00
2008,07,04,08,47,20.10
2008,07,04,08,48,20.10
2008,07,04,08,49,20.10
2008,07,04,08,50,20.20
2008,07,04,08,51,20.20
2008,07,04,08,52,20.30
2008,07,04,08,53,20.40
2008,07,04,08,54,20.40
2008,07,04,08,55,20.50
2008,07,04,08,56,20.60
2008,07,04,08,57,20.60
2008,07,04,08,58,20.60
2008,07,04,08,59,20.60
2008,07,04,09,00,20.60
2008,07,04,09,01,20.70
2008,07,04,09,02,20.70
2008,07,04,09,03,20.70
2008,07,04,09,04,20.70
2008,07,04,09,05,20.70
2008,07,04,09,06,20.60
2008,07,04,09,07,20.60
2008,07,04,09,08,20.60
2008,07,04,09,09,20.70
2008,07,04,09,10,20.70
2008,07,04,09,11,20.70
2008,07,04,09,12,20.70
2008,07,04,09,13,20.70
2008,07,04,09,14,20.70
2008,07,04,09,15,20.70
2008,07,04,09,16,20.70
2008,07,04,09,17,20.80
2008,07,04,09,18,20.80
2008,07,04,09,19,20.80
2008,07,04,09,20,20.90
2008,07,04,09,21,20.90
2008,07,04,09,22,21.00
2008,07,04,09,23,21.10
2008,07,04,09,24,21.20
2008,07,04,09,25,21.40
2008,07,04,09,26,21.40
2008,07,04,09,27,21.40
2008,07,04,09,28,21.50
2008,07,04,09,29,21.60
2008,07,04,09,30,21.70
2008,07,04,09,31,21.80
2008,07,04,09,32,21.80
2008,07,04,09,33,21.80
2008,07,04,09,34,21.80
2008,07,04,09,35,21.70
2008,07,04,09,36,21.70
2008,07,04,09,37,21.70
2008,07,04,09,38,21.70
2008,07,04,09,39,21.70
2008,07,04,09,40,21.80
2008,07,04,09,41,21.80
2008,07,04,09,42,21.80
2008,07,04,09,43,21.80
2008,07,04,09,44,21.70
2008,07,04,09,45,21.80
2008,07,04,09,46,21.70
2008,07,04,09,47,21.70
2008,07,04,09,48,21.70
2008,07,04,09,49,21.80
2008,07,04,09,50,21.80
2008,07,04,09,51,21.80
2008,07,04,09,52,21.90
2008,07,04,09,53,21.80
2008,07,04,09,54,21.80
2008,07,04,09,55,21.80
2008,07,04,09,56,21.80
2008,07,04,09,57,21.90
2008,07,04,09,58,21.90
2008,07,04,09,59,21.90
2008,07,04,10,00,21.90
2008,07,04,10,01,21.90
2008,07,04,10,02,21.90
2008,07,04,10,03,21.80
2008,07,04,10,04,21.70
2008,07,04,10,05,21.60
2008,07,04,10,06,21.60
2008,07,04,10,07,21.60
2008,07,04,10,08,21.70
2008,07,04,10,09,21.80
2008,07,04,10,10,21.80
2008,07,04,10,11,21.80
2008,07,04,10,12,21.80
2008,07,04,10,13,21.80
2008,07,04,10,14,21.90
2008,07,04,10,15,21.90
2008,07,04,10,16,22.00
2008,07,04,10,17,22.00
2008,07,04,10,18,22.00
2008,07,04,10,19,21.90
2008,07,04,10,20,21.80
2008,07,04,10,21,21.70
2008,07,04,10,22,21.70
2008,07,04,10,23,21.70
2008,07,04,10,24,21.60
2008,07,04,10,25,21.60
2008,07,04,10,26,21.60
2008,07,04,10,27,21.60
2008,07,04,10,28,21.50
2008,07,04,10,29,21.50
2008,07,04,10,30,21.20
2008,07,04,10,31,21.10
2008,07,04,10,32,21.10
2008,07,04,10,33,21.10
2008,07,04,10,34,21.00
2008,07,04,10,35,20.70
2008,07,04,10,36,20.30
2008,07,04,10,37,20.00
2008,07,04,10,38,19.80
2008,07,04,10,39,19.60
2008,07,04,10,40,19.50
2008,07,04,10,41,19.30
2008,07,04,10,42,19.30
2008,07,04,10,43,19.10
2008,07,04,10,44,19.00
2008,07,04,10,45,19.10
2008,07,04,10,46,19.20
2008,07,04,10,47,19.30
2008,07,04,10,48,19.30
2008,07,04,10,49,19.20
2008,07,04,10,50,19.10
2008,07,04,10,51,19.00
2008,07,04,10,52,19.00
2008,07,04,10,53,18.90
2008,07,04,10,54,19.00
2008,07,04,10,55,19.00
2008,07,04,10,56,19.00
2008,07,04,10,57,18.80
2008,07,04,10,58,18.70
2008,07,04,10,59,18.60
2008,07,04,11,00,18.60
2008,07,04,11,01,18.60
2008,07,04,11,02,18.60
2008,07,04,11,03,18.50
2008,07,04,11,04,18.50
2008,07,04,11,05,18.40
2008,07,04,11,06,18.40
2008,07,04,11,07,18.40
2008,07,04,11,08,18.30
2008,07,04,11,09,18.20
2008,07,04,11,10,18.10
2008,07,04,11,11,18.00
2008,07,04,11,12,18.00
2008,07,04,11,13,18.00
2008,07,04,11,14,18.10
2008,07,04,11,15,18.00
2008,07,04,11,16,18.00
2008,07,04,11,17,18.00
2008,07,04,11,18,17.90
2008,07,04,11,19,17.90
2008,07,04,11,20,18.00
2008,07,04,11,21,18.00
2008,07,04,11,22,18.00
2008,07,04,11,23,18.10
2008,07,04,11,24,18.10
2008,07,04,11,25,18.20
2008,07,04,11,26,18.20
2008,07,04,11,27,18.20
2008,07,04,11,28,18.30
2008,07,04,11,29,18.30
2008,07,04,11,30,18.30
2008,07,04,11,31,18.30
2008,07,04,11,32,18.30
2008,07,04,11,33,18.30
2008,07,04,11,34,18.30
2008,07,04,11,35,18.30
2008,07,04,11,36,18.20
2008,07,04,11,37,18.20
2008,07,04,11,38,18.20
2008,07,04,11,39,18.20
2008,07,04,11,40,18.10
2008,07,04,11,41,18.10
2008,07,04,11,42,18.00
2008,07,04,11,43,17.90
2008,07,04,11,44,17.70
2008,07,04,11,45,17.40
2008,07,04,11,46,17.20
2008,07,04,11,47,17.10
2008,07,04,11,48,17.00
2008,07,04,11,49,16.90
2008,07,04,11,50,16.90
2008,07,04,11,51,16.80
2008,07,04,11,52,16.80
2008,07,04,11,53,16.70
2008,07,04,11,54,16.80
2008,07,04,11,55,16.80
2008,07,04,11,56,16.80
2008,07,04,11,57,16.90
2008,07,04,11,58,16.90
2008,07,04,11,59,17.00
2008,07,04,12,00,17.00
2008,07,04,12,01,17.10
2008,07,04,12,02,17.20
2008,07,04,12,03,17.30
2008,07,04,12,04,17.30
2008,07,04,12,05,17.30
2008,07,04,12,06,17.40
2008,07,04,12,07,17.40
2008,07,04,12,08,17.50
2008,07,04,12,09,17.60
2008,07,04,12,10,17.70
2008,07,04,12,11,17.70
2008,07,04,12,12,17.80
2008,07,04,12,13,17.80
2008,07,04,12,14,17.80
2008,07,04,12,15,17.80
2008,07,04,12,16,17.80
2008,07,04,12,17,17.90
2008,07,04,12,18,18.00
2008,07,04,12,19,18.00
2008,07,04,12,20,17.90
2008,07,04,12,21,18.00
2008,07,04,12,22,17.90
2008,07,04,12,23,17.90
2008,07,04,12,24,17.90
2008,07,04,12,25,17.80
2008,07,04,12,26,17.80
2008,07,04,12,27,17.80
2008,07,04,12,28,17.80
2008,07,04,12,29,17.90
2008,07,04,12,30,17.90
2008,07,04,12,31,17.90
2008,07,04,12,32,17.90
2008,07,04,12,33,17.90
2008,07,04,12,34,17.90
2008,07,04,12,35,17.90
2008,07,04,12,36,17.90
2008,07,04,12,37,17.90
2008,07,04,12,38,17.90
2008,07,04,12,39,18.00
2008,07,04,12,40,18.00
2008,07,04,12,41,18.00
2008,07,04,12,42,18.00
2008,07,04,12,43,18.00
2008,07,04,12,44,17.90
2008,07,04,12,45,17.90
2008,07,04,12,46,17.80
2008,07,04,12,47,17.60
2008,07,04,12,48,17.40
2008,07,04,12,49,17.30
2008,07,04,12,50,17.20
2008,07,04,12,51,17.20
2008,07,04,12,52,17.20
2008,07,04,12,53,17.20
2008,07,04,12,54,17.20
2008,07,04,12,55,17.20
2008,07,04,12,56,17.10
2008,07,04,12,57,17.10
2008,07,04,12,58,17.10
2008,07,04,12,59,17.00
2008,07,04,13,00,16.90
2008,07,04,13,01,16.80
2008,07,04,13,02,16.80
2008,07,04,13,03,16.80
2008,07,04,13,04,16.80
2008,07,04,13,05,16.80
2008,07,04,13,06,16.90
2008,07,04,13,07,16.90
2008,07,04,13,08,16.90
2008,07,04,13,09,16.80
2008,07,04,13,10,16.80
2008,07,04,13,11,16.80
2008,07,04,13,12,16.80
2008,07,04,13,13,16.90
2008,07,04,13,14,16.90
2008,07,04,13,15,16.90
2008,07,04,13,16,16.90
2008,07,04,13,17,16.90
2008,07,04,13,18,16.90
2008,07,04,13,19,16.90
2008,07,04,13,20,16.90
2008,07,04,13,21,16.90
2008,07,04,13,22,17.00
2008,07,04,13,23,17.10
2008,07,04,13,24,17.10
2008,07,04,13,25,17.20
2008,07,04,13,26,17.30
2008,07,04,13,27,17.30
2008,07,04,13,28,17.30
2008,07,04,13,29,17.30
2008,07,04,13,30,17.40
2008,07,04,13,31,17.40
2008,07,04,13,32,17.40
2008,07,04,13,33,17.50
2008,07,04,13,34,17.60
2008,07,04,13,35,17.70
2008,07,04,13,36,17.70
2008,07,04,13,37,17.60
2008,07,04,13,38,17.60
2008,07,04,13,39,17.50
2008,07,04,13,40,17.50
2008,07,04,13,41,17.40
2008,07,04,13,42,17.40
2008,07,04,13,43,17.40
2008,07,04,13,44,17.40
2008,07,04,13,45,17.40
2008,07,04,13,46,17.30
2008,07,04,13,47,17.20
2008,07,04,13,48,17.20
2008,07,04,13,49,17.20
2008,07,04,13,50,17.10
2008,07,04,13,51,17.00
2008,07,04,13,52,16.90
2008,07,04,13,53,16.90
2008,07,04,13,54,16.80
2008,07,04,13,55,16.90
2008,07,04,13,56,16.90
2008,07,04,13,57,17.00
2008,07,04,13,58,16.90
2008,07,04,13,59,16.90
2008,07,04,14,00,16.80
2008,07,04,14,01,16.80
2008,07,04,14,02,16.80
2008,07,04,14,03,16.90
2008,07,04,14,04,16.90
2008,07,04,14,05,16.90
2008,07,04,14,06,17.00
2008,07,04,14,07,17.10
2008,07,04,14,08,17.10
2008,07,04,14,09,17.00
2008,07,04,14,10,16.90
2008,07,04,14,11,16.90
2008,07,04,14,12,17.00
2008,07,04,14,13,17.00
2008,07,04,14,14,17.10
2008,07,04,14,15,17.10
2008,07,04,14,16,17.20
2008,07,04,14,17,17.20
2008,07,04,14,18,17.20
2008,07,04,14,19,17.10
2008,07,04,14,20,17.10
2008,07,04,14,21,17.10
2008,07,04,14,22,17.10
2008,07,04,14,23,17.10
2008,07,04,14,24,17.10
2008,07,04,14,25,17.00
2008,07,04,14,26,17.10
2008,07,04,14,27,17.10
2008,07,04,14,28,17.00
2008,07,04,14,29,16.90
2008,07,04,14,30,16.90
2008,07,04,14,31,16.90
2008,07,04,14,32,17.00
2008,07,04,14,33,17.00
2008,07,04,14,34,17.20
2008,07,04,14,35,17.30
2008,07,04,14,36,17.30
2008,07,04,14,37,17.40
2008,07,04,14,38,17.40
2008,07,04,14,39,17.50
2008,07,04,14,40,17.60
2008,07,04,14,41,17.70
2008,07,04,14,42,17.70
2008,07,04,14,43,17.70
2008,07,04,14,44,17.80
2008,07,04,14,45,17.80
2008,07,04,14,46,17.90
2008,07,04,14,47,18.00
2008,07,04,14,48,18.10
2008,07,04,14,49,18.10
2008,07,04,14,50,18.00
2008,07,04,14,51,18.00
2008,07,04,14,52,18.10
2008,07,04,14,53,18.00
2008,07,04,14,54,17.90
2008,07,04,14,55,17.90
2008,07,04,14,56,17.80
2008,07,04,14,57,17.70
2008,07,04,14,58,17.60
2008,07,04,14,59,17.50
2008,07,04,15,00,17.50
2008,07,04,15,01,17.40
2008,07,04,15,02,17.30
2008,07,04,15,03,17.20
2008,07,04,15,04,17.10
2008,07,04,15,05,17.10
2008,07,04,15,06,17.10
2008,07,04,15,07,17.10
2008,07,04,15,08,17.10
2008,07,04,15,09,17.10
2008,07,04,15,10,17.10
2008,07,04,15,11,17.20
2008,07,04,15,12,17.30
2008,07,04,15,13,17.30
2008,07,04,15,14,17.30
2008,07,04,15,15,17.30
2008,07,04,15,16,17.30
2008,07,04,15,17,17.30
2008,07,04,15,18,17.40
2008,07,04,15,19,17.40
2008,07,04,15,20,17.30
2008,07,04,15,21,17.30
2008,07,04,15,22,17.20
2008,07,04,15,23,17.10
2008,07,04,15,24,17.10
2008,07,04,15,25,17.10
2008,07,04,15,26,17.10
2008,07,04,15,27,17.20
2008,07,04,15,28,17.20
2008,07,04,15,29,17.20
2008,07,04,15,30,17.20
2008,07,04,15,31,17.20
2008,07,04,15,32,17.20
2008,07,04,15,33,17.30
2008,07,04,15,34,17.30
2008,07,04,15,35,17.30
2008,07,04,15,36,17.30
2008,07,04,15,37,17.40
2008,07,04,15,38,17.40
2008,07,04,15,39,17.40
2008,07,04,15,40,17.40
2008,07,04,15,41,17.40
2008,07,04,15,42,17.40
2008,07,04,15,43,17.40
2008,07,04,15,44,17.50
2008,07,04,15,45,17.50
2008,07,04,15,46,17.60
2008,07,04,15,47,17.60
2008,07,04,15,48,17.70
2008,07,04,15,49,17.80
2008,07,04,15,50,17.80
2008,07,04,15,51,17.70
2008,07,04,15,52,17.70
2008,07,04,15,53,17.60
2008,07,04,15,54,17.60
2008,07,04,15,55,17.60
2008,07,04,15,56,17.60
2008,07,04,15,57,17.60
2008,07,04,15,58,17.60
2008,07,04,15,59,17.60
2008,07,04,16,00,17.60
2008,07,04,16,01,17.50
2008,07,04,16,02,17.50
2008,07,04,16,03,17.50
2008,07,04,16,04,17.50
2008,07,04,16,05,17.50
2008,07,04,16,06,17.50
2008,07,04,16,07,17.50
2008,07,04,16,08,17.50
2008,07,04,16,09,17.40
2008,07,04,16,10,17.30
2008,07,04,16,11,17.30
2008,07,04,16,12,17.20
2008,07,04,16,13,17.20
2008,07,04,16,14,17.20
2008,07,04,16,15,17.20
2008,07,04,16,16,17.20
2008,07,04,16,17,17.20
2008,07,04,16,18,17.20
2008,07,04,16,19,17.20
2008,07,04,16,20,17.10
2008,07,04,16,21,17.10
2008,07,04,16,22,17.00
2008,07,04,16,23,16.90
2008,07,04,16,24,16.90
2008,07,04,16,25,16.90
2008,07,04,16,26,16.90
2008,07,04,16,27,16.90
2008,07,04,16,28,16.90
2008,07,04,16,29,16.90
2008,07,04,16,30,16.90
2008,07,04,16,31,16.90
2008,07,04,16,32,16.90
2008,07,04,16,33,16.90
2008,07,04,16,34,16.90
2008,07,04,16,35,16.90
2008,07,04,16,36,16.90
2008,07,04,16,37,16.90
2008,07,04,16,38,17.00
2008,07,04,16,39,17.00
2008,07,04,16,40,17.00
2008,07,04,16,41,17.00
2008,07,04,16,42,17.00
2008,07,04,16,43,17.00
2008,07,04,16,44,17.10
2008,07,04,16,45,17.10
2008,07,04,16,46,17.20
2008,07,04,16,47,17.30
2008,07,04,16,48,17.40
2008,07,04,16,49,17.40
2008,07,04,16,50,17.40
2008,07,04,16,51,17.40
2008,07,04,16,52,17.40
2008,07,04,16,53,17.40
2008,07,04,16,54,17.40
2008,07,04,16,55,17.40
2008,07,04,16,56,17.30
2008,07,04,16,57,17.30
2008,07,04,16,58,17.20
2008,07,04,16,59,17.20
2008,07,04,17,00,17.30
2008,07,04,17,01,17.30
2008,07,04,17,02,17.30
2008,07,04,17,03,17.30
2008,07,04,17,04,17.30
2008,07,04,17,05,17.40
2008,07,04,17,06,17.40
2008,07,04,17,07,17.40
2008,07,04,17,08,17.40
2008,07,04,17,09,17.40
2008,07,04,17,10,17.40
2008,07,04,17,11,17.40
2008,07,04,17,12,17.40
2008,07,04,17,13,17.40
2008,07,04,17,14,17.50
2008,07,04,17,15,17.50
2008,07,04,17,16,17.50
2008,07,04,17,17,17.60
2008,07,04,17,18,17.60
2008,07,04,17,19,17.70
2008,07,04,17,20,17.70
2008,07,04,17,21,17.80
2008,07,04,17,22,17.90
2008,07,04,17,23,18.10
2008,07,04,17,24,18.30
2008,07,04,17,25,18.50
2008,07,04,17,26,18.60
2008,07,04,17,27,18.70
2008,07,04,17,28,18.60
2008,07,04,17,29,18.60
2008,07,04,17,30,18.70
2008,07,04,17,31,18.80
2008,07,04,17,32,18.90
2008,07,04,17,33,19.00
2008,07,04,17,34,19.10
2008,07,04,17,35,19.10
2008,07,04,17,36,19.20
2008,07,04,17,37,19.30
2008,07,04,17,38,19.50
2008,07,04,17,39,19.70
2008,07,04,17,40,19.90
2008,07,04,17,41,19.90
2008,07,04,17,42,20.00
2008,07,04,17,43,20.10
2008,07,04,17,44,19.90
2008,07,04,17,45,19.70
2008,07,04,17,46,19.50
2008,07,04,17,47,19.30
2008,07,04,17,48,19.40
2008,07,04,17,49,19.40
2008,07,04,17,50,19.40
2008,07,04,17,51,19.50
2008,07,04,17,52,19.60
2008,07,04,17,53,19.40
2008,07,04,17,54,19.30
2008,07,04,17,55,19.10
2008,07,04,17,56,19.00
2008,07,04,17,57,19.00
2008,07,04,17,58,19.10
2008,07,04,17,59,19.20
2008,07,04,18,00,19.40
2008,07,04,18,01,19.40
2008,07,04,18,02,19.30
2008,07,04,18,03,19.30
2008,07,04,18,04,19.30
2008,07,04,18,05,19.40
2008,07,04,18,06,19.50
2008,07,04,18,07,19.70
2008,07,04,18,08,19.80